Weather in Martan-Chu

Russia / Chechen Republic     43°03′38″N   45°33′23″E
temp.,
°C
wind,
m/s
gust,
m/s
humid.,
%
clouds,
%
prec.,
mm/h
press.,
hPa
HPBL,
m
16 may, sun
sun1600:00+17ssw335351 0.0 101340
03:00+16ssw335919 0.0 101248
06:00+17ssw33586 0.0 101169
09:00+25nne22352 0.0 1009845
12:00+27nne33350 0.0 10081299
15:00+28ne23330 0.0 10061395
18:00+24sse11520 0.0 100517
21:00+17ssw563935 0.0 100798
17 may, mon
mon1700:00+17ssw56325 0.0 100695
03:00+16ssw453711 0.0 100678
06:00+18ssw34469 0.0 100672
09:00+26n22301 0.0 1005801
12:00+29nne33260 0.0 10051429
15:00+29nne332972 0.0 10041231
18:00+24nw2253100 0.0 100577
21:00+18s3465100 0.0 100775
18 may, tue
tue1800:00+16ssw1162100 0.0 100612
03:00+14wsw246914 0.1 1008148
06:00+16w257682 0.2 1010436
09:00+16nnw3582100 0.3 1010725
12:00+15nw2589100 0.9 1012539
15:00+16nne1285100 1.6 1012520
18:00+16n118498 0.8 1013223
21:00+13ssw228915 1.1 101434
19 may, wed
wed1900:00+12ssw228696 0.0 101320
03:00+12ssw22829 0.0 101333
06:00+14ssw226923 0.0 101462
09:00+20nne325242 0.0 1012869
12:00+22nne324815 0.0 10131533
15:00+20n235698 0.3 1014771
18:00+17ssw2170100 0.2 101624
21:00+17sw216573 0.2 101722
20 may, thu
thu2000:00+13ssw11836 0.0 101815
03:00+12ssw21916 0.0 101819
06:00+14ese018318 0.0 1019151
09:00+19ne33595 0.0 1016847
12:00+23ne43473 0.0 10141195
15:00+24ne43450 0.0 10131209
18:00+19ne22634 0.0 1014312
21:00+15sw22751 0.0 101419